"TOA5","AWS1","CR1000","7964","CR1000.Std.14","CPU:AWS1_114.CR1","64363","TBL110"
"TIMESTAMP","RECORD","Wind_spd_WVc(1)","Wind_spd_WVc(2)","Air_Temp_Avg","Humidity_Avg","SW_upper_Wm2_Avg","Rain_Tot","Press_Avg","Issui_Tot","Depth_cm","SR50A_Raw","Quality","Ground_Temp_Avg(1)","Ground_Temp_Avg(2)","SW_lower_Wm2_Avg","Albedo_Avg","SWC_per(1)","SWC_per(2)","Period(1)","Period(2)"
"TS","RN","","","","","","","","","","","","","","","","","","",""
"","","WVc","WVc","Avg","Avg","Avg","Tot","Avg","Tot","Smp","Smp","Smp","Avg","Avg","Avg","Avg","Smp","Smp","Smp","Smp"
"2016-02-01 00:00:00",220525,0.124,60.36,-3.05,99.7,0,0,865.5726,0,31.07,2.885,204,1.282,1.907,0.2198685,0,52.21,60.68,33.84,35.83
"2016-02-01 00:10:00",220526,0.137,119.3,-3.064,99.8,0,0,865.3008,0,30.69,2.889,198,1.282,1.924,0.2160777,0,52.21,60.62,33.84,35.82
"2016-02-01 00:20:00",220527,0.111,311.1,-2.994,98.5,0,0,865.1681,0,31.99,2.876,236,1.282,1.923,0.2274502,0,52.21,60.62,33.84,35.82
"2016-02-01 00:30:00",220528,0.852,55.49,-3.071,96.7,0,0,864.9827,0,31.78,2.879,193,1.282,1.919,0.1250976,0,52.21,60.68,33.84,35.83
"2016-02-01 00:40:00",220529,0.794,49.37,-3.217,99.1,0,0,864.989,0,31.9,2.878,196,1.282,1.919,0.06823505,0,52.21,60.62,33.84,35.82
"2016-02-01 00:50:00",220530,0.381,65.37,-3.179,98.3,0,0,864.8563,0,31.83,2.878,192,1.282,1.915,0.1250976,0,52.21,60.68,33.84,35.83
"2016-02-01 01:00:00",220531,0.266,60.79,-3.009,95.2,0,0,864.8584,0,31.51,2.881,190,1.282,1.897,0.2274502,0,52.16,60.68,33.83,35.83
"2016-02-01 01:10:00",220532,0.295,351.2,-3.102,98.7,0,0,864.7193,0,31.7,2.88,181,1.279,1.902,0.1554243,0,52.21,60.68,33.84,35.83
"2016-02-01 01:20:00",220533,0.098,326.6,-3.202,100,0,0,864.7298,0,31.92,2.878,195,1.282,1.884,0,0,52.16,60.62,33.83,35.82
"2016-02-01 01:30:00",220534,0.074,318.6,-3.258,100,0,0,864.7635,0,31.97,2.878,192,1.282,1.882,0,0,52.16,60.68,33.83,35.83
"2016-02-01 01:40:00",220535,0.148,296,-3.325,100,0,0,864.9721,0,31.97,2.878,189,1.282,1.905,0,0,52.16,60.68,33.83,35.83
"2016-02-01 01:50:00",220536,0.196,324.9,-3.354,100,0.07076928,0,864.9743,0,32.07,2.877,194,1.281,1.892,0,0,52.16,60.68,33.83,35.83
"2016-02-01 02:00:00",220537,0.609,312.7,-3.419,100,0.200513,0,864.9426,0,32.31,2.875,198,1.246,1.857,0,0,52.16,60.68,33.83,35.83
"2016-02-01 02:10:00",220538,0.19,273.4,-3.341,100,0,0,864.8478,0,32.17,2.876,194,1.245,1.85,0.01137251,0,52.21,60.68,33.84,35.83
"2016-02-01 02:20:00",220539,0.212,354.1,-3.394,100,0,0,864.7509,0,32.37,2.874,193,1.256,1.857,0.03790836,0,52.16,60.62,33.83,35.82
"2016-02-01 02:30:00",220540,0.354,2.154,-3.414,100,0,0,864.8647,0,32.41,2.874,191,1.26,1.861,0.1326793,0,52.16,60.62,33.83,35.82
"2016-02-01 02:40:00",220541,0.376,277.5,-3.476,100,0.06683765,0,865.0396,0,32.41,2.875,172,1.275,1.87,0.02653586,0,52.16,60.62,33.83,35.82
"2016-02-01 02:50:00",220542,0.574,294.3,-3.605,100,0.01572651,0,864.9743,0,32.5,2.874,175,1.245,1.855,0,0,52.16,60.62,33.83,35.82
"2016-02-01 03:00:00",220543,0.658,273.6,-3.629,100,0,0,864.9806,0,32.5,2.874,176,1.231,1.848,0.007581673,0,52.16,60.62,33.83,35.82
"2016-02-01 03:10:00",220544,0.655,303.9,-3.617,98.7,0,0,864.9932,0,32.41,2.875,177,1.24,1.859,0,0,52.16,60.62,33.83,35.82
"2016-02-01 03:20:00",220545,0.786,308.5,-3.655,97.4,0,0,864.9385,0,32.53,2.874,176,1.263,1.874,0.01137251,0,52.16,60.62,33.83,35.82
"2016-02-01 03:30:00",220546,0.825,301.4,-3.708,95.7,0,0,864.9743,0,32.55,2.874,178,1.242,1.883,0.08718923,0,52.16,60.62,33.83,35.82
"2016-02-01 03:40:00",220547,0.61,295.5,-3.653,94.3,0,0,864.8795,0,32.5,2.874,177,1.216,1.876,0.2236593,0,52.16,60.62,33.83,35.82
"2016-02-01 03:50:00",220548,0.473,270.2,-3.684,94.7,0,0,864.7488,0,32.45,2.875,177,1.206,1.881,0.1895418,0,52.16,60.62,33.83,35.82
"2016-02-01 04:00:00",220549,0.143,282.1,-3.716,95.2,0,0,864.9111,0,32.47,2.875,186,1.204,1.884,0.2236593,0,52.16,60.62,33.83,35.82
"2016-02-01 04:10:00",220550,0.198,231.5,-3.668,93.6,0,0,864.7424,0,32.41,2.875,186,1.203,1.886,0.2274502,0,52.16,60.62,33.83,35.82
"2016-02-01 04:20:00",220551,0.316,202.9,-3.647,94.8,0,0,864.6771,0,32.45,2.875,190,1.205,1.883,0.2274502,0,52.16,60.62,33.83,35.82
"2016-02-01 04:30:00",220552,0.006,338.4,-3.64,94.3,0,0,864.7109,0,32.41,2.875,190,1.205,1.888,0.2274502,0,52.16,60.62,33.83,35.82
"2016-02-01 04:40:00",220553,0.113,186.2,-3.604,93.1,0,0,864.5296,0,32.31,2.876,190,1.204,1.886,0.2274502,0,52.16,60.62,33.83,35.82
"2016-02-01 04:50:00",220554,0.095,281.6,-3.711,94.8,0,0,864.4643,0,32.3,2.877,189,1.203,1.886,0.1061434,0,52.16,60.62,33.83,35.82
"2016-02-01 05:00:00",220555,0.397,310.7,-4.171,99.6,0.1336753,0,864.4201,0,32.34,2.88,190,1.21,1.881,0,0,52.1,60.62,33.81,35.82
"2016-02-01 05:10:00",220556,0.376,242.6,-4.213,100,0.07863254,0,864.2031,0,32.36,2.878,192,1.219,1.883,0,0,52.1,60.62,33.81,35.82
"2016-02-01 05:20:00",220557,0.309,310.2,-4.096,100,0,0,864.1884,0,32.28,2.879,190,1.221,1.886,0,0,52.1,60.56,33.81,35.81
"2016-02-01 05:30:00",220558,0.504,320.6,-4.425,100,0.3105985,0,864.3085,0,32.28,2.882,190,1.218,1.886,0,0,52.1,60.56,33.81,35.81
"2016-02-01 05:40:00",220559,0.425,320.9,-4.749,100,0.3892311,0,864.1841,0,32.35,2.882,172,1.237,1.885,0,0,52.16,60.56,33.83,35.81
"2016-02-01 05:50:00",220560,0.476,309.5,-4.818,100,0.231966,0,864.1715,0,32.43,2.881,177,1.237,1.886,0,0,52.1,60.56,33.81,35.81
"2016-02-01 06:00:00",220561,0.196,354.8,-4.828,100,0.1179488,0,864.3274,0,32.38,2.882,177,1.238,1.886,0,0,52.1,60.56,33.81,35.81
"2016-02-01 06:10:00",220562,0.227,353.6,-4.927,100,0.2358976,0,864.4559,0,32.37,2.883,177,1.23,1.886,0,0,52.16,60.56,33.83,35.81
"2016-02-01 06:20:00",220563,0.161,313.4,-5.001,100,0.1729916,0,864.6434,0,32.32,2.883,176,1.225,1.884,0,0,52.1,60.56,33.81,35.81
"2016-02-01 06:30:00",220564,0.214,302.6,-5.065,100,0.1100885,0,864.7656,0,32.36,2.884,177,1.239,1.897,0,0,52.1,60.56,33.81,35.81
"2016-02-01 06:40:00",220565,0.179,2.79,-5.286,100,0.2398378,0,864.8325,0,32.27,2.886,172,1.236,1.92,0,0,52.1,60.56,33.81,35.81
"2016-02-01 06:50:00",220566,0.368,314.6,-5.442,100,0.2359104,0,864.7726,0,32.29,2.886,172,1.23,1.925,0,0,52.1,60.56,33.81,35.81
"2016-02-01 07:00:00",220567,0.032,12.32,-5.466,100,0.2791638,0,864.7496,0,32.29,2.886,177,1.23,1.928,0.2123013,0.715,52.05,60.56,33.8,35.81
"2016-02-01 07:10:00",220568,0.137,7.976,-5.51,100,0.9161519,0,864.7199,0,32.28,2.887,177,1.217,1.918,1.307958,1.388,52.16,60.56,33.83,35.81
"2016-02-01 07:20:00",220569,0.155,358.8,-5.589,100,2.080077,0,864.6756,0,32.22,2.888,172,1.242,1.953,3.669965,1.763,52.16,60.56,33.83,35.81
"2016-02-01 07:30:00",220570,0.225,321,-5.636,100,3.68445,0,864.6851,0,32.35,2.886,177,1.235,1.938,6.828255,1.843,52.1,60.56,33.81,35.81
"2016-02-01 07:40:00",220571,0.212,337.5,-5.51,100,5.929706,0,864.7017,0,32.21,2.887,171,1.233,1.929,11.9314,2.008,52.1,60.5,33.81,35.79
"2016-02-01 07:50:00",220572,0.193,343.4,-5.504,100,6.255888,0,864.8307,0,32.11,2.888,172,1.223,1.911,12.28362,1.964,52.1,60.5,33.81,35.79
"2016-02-01 08:00:00",220573,0.106,13.66,-5.524,100,6.825998,0,864.9923,0,32.21,2.887,171,1.222,1.893,13.24653,1.941,52.05,60.5,33.8,35.79
"2016-02-01 08:10:00",220574,0.212,7.435,-5.567,100,7.78552,0,864.9914,0,32.2,2.888,176,1.226,1.938,14.60019,1.881,52.1,60.5,33.81,35.79
"2016-02-01 08:20:00",220575,0.276,7.136,-5.603,100,12.74032,0,864.9893,0,32.35,2.886,171,1.235,1.947,24.38619,1.913,52.05,60.5,33.8,35.79
"2016-02-01 08:30:00",220576,0.207,5.508,-5.492,100,16.85739,0,864.9694,0,32.11,2.888,172,1.233,1.948,32.50368,1.928,52.05,60.5,33.8,35.79
"2016-02-01 08:40:00",220577,0.124,36.26,-5.457,100,20.32553,0,864.7848,0,32.26,2.885,176,1.238,1.942,39.42284,1.936,52.05,60.5,33.8,35.79
"2016-02-01 08:50:00",220578,0.099,155.5,-5.235,100,26.30663,0,864.748,0,32.12,2.886,176,1.244,1.925,51.19933,1.946,52.1,60.5,33.81,35.79
"2016-02-01 09:00:00",220579,0.137,5.079,-5.12,100,28.11488,0,864.5833,0,32.12,2.886,176,1.271,1.921,54.19724,1.928,52.05,60.5,33.8,35.79
"2016-02-01 09:10:00",220580,0.256,349.2,-5.189,100,26.92228,0,864.7195,0,32.23,2.885,177,1.261,1.909,50.74113,1.885,52.1,60.5,33.81,35.79
"2016-02-01 09:20:00",220581,0.219,328,-5.173,100,30.56224,0,864.8464,0,32.28,2.885,176,1.231,1.899,57.88931,1.895,52.05,60.5,33.8,35.79
"2016-02-01 09:30:00",220582,0.349,17.57,-5.297,100,28.50102,0,864.7907,0,32.13,2.887,176,1.208,1.889,52.60286,1.845,52.05,60.5,33.8,35.79
"2016-02-01 09:40:00",220583,0.252,34.22,-5.205,100,34.08749,0,864.8231,0,32.24,2.885,179,1.207,1.869,64.259,1.885,52.05,60.5,33.8,35.79
"2016-02-01 09:50:00",220584,0.191,353.8,-5.136,100,33.3167,0,864.9707,0,32.31,2.884,192,1.231,1.879,63.21238,1.897,52.05,60.5,33.8,35.79
"2016-02-01 10:00:00",220585,0.22,335.3,-5.271,100,31.19356,0,864.9703,0,32.28,2.886,188,1.232,1.846,57.56012,1.846,52.05,60.5,33.8,35.79
"2016-02-01 10:10:00",220586,0.353,346.5,-5.286,100,33.14363,0,864.9385,0,32.54,2.882,192,1.247,1.87,62.33655,1.882,52.1,60.5,33.81,35.79
"2016-02-01 10:20:00",220587,0.457,3.108,-5.258,100,38.69903,0,864.7321,0,32.31,2.885,188,1.256,1.853,73.72423,1.904,52.1,60.5,33.81,35.79
"2016-02-01 10:30:00",220588,0.368,349.9,-5.22,100,41.38433,0,864.7425,0,32.44,2.883,187,1.259,1.858,79.48251,1.921,52.1,60.5,33.81,35.79
"2016-02-01 10:40:00",220589,0.381,351.2,-5.122,100,39.99253,0,864.8036,0,32.47,2.882,187,1.269,1.861,77.24213,1.931,52.05,60.5,33.8,35.79
"2016-02-01 10:50:00",220590,0.23,312.1,-5.01,100,37.94022,0,864.8858,0
"2016-02-01 10:50:00",220590,0.23,312.1,-5.01,100,37.94022,0,864.8858,0,32.37,2.883,171,1.278,1.868,73.25796,1.931,52.1,60.44,33.81,35.78
"2016-02-01 11:00:00",220591,0.249,318.8,-5.067,100,41.17202,0,864.7383,0,32.34,2.883,171,1.282,1.913,79.82369,1.939,52.05,60.5,33.8,35.79
"2016-02-01 11:10:00",220592,0.31,352.4,-4.992,100,37.56279,0,864.5487,0,32.34,2.884,171,1.282,1.901,71.6658,1.905,52.1,60.5,33.81,35.79
"2016-02-01 11:20:00",220593,0.285,354.6,-5.176,100,34.61013,0,864.4708,0,32.48,2.883,170,1.281,1.9,65.53981,1.893,52.05,60.5,33.8,35.79
"2016-02-01 11:30:00",220594,0.353,1.453,-5.16,100,39.6898,0,864.3718,0,32.44,2.883,170,1.282,1.909,76.33991,1.923,52.05,60.44,33.8,35.78
"2016-02-01 11:40:00",220595,0.323,10.03,-5.111,100,39.19048,0,864.041,0,32.47,2.882,170,1.282,1.896,75.67272,1.931,52.1,60.44,33.81,35.78
"2016-02-01 11:50:00",220596,0.234,21.19,-4.995,100,33.98107,0,863.9672,0,32.34,2.884,170,1.282,1.895,65.49432,1.928,52.1,60.44,33.81,35.78
"2016-02-01 12:00:00",220597,0.439,3.909,-5.154,100,37.44091,0,863.9103,0,32.31,2.884,170,1.282,1.903,71.69613,1.913,52.05,60.44,33.8,35.78
"2016-02-01 12:10:00",220598,0.296,7.864,-5.082,100,48.00912,0,863.746,0,32.27,2.884,170,1.282,1.894,93.70194,1.952,52.05,60.44,33.8,35.78
"2016-02-01 12:20:00",220599,0.542,8.29,-4.969,100,54.31153,0,863.569,0,32.4,2.882,170,1.282,1.888,105.7682,1.948,52.05,60.44,33.8,35.78
"2016-02-01 12:30:00",220600,0.358,353.6,-4.864,100,53.10452,0,863.4531,0,32.45,2.881,170,1.282,1.887,103.8159,1.953,52.05,60.44,33.8,35.78
"2016-02-01 12:40:00",220601,0.292,353,-4.715,100,51.81101,0,863.4847,0,32.5,2.88,170,1.286,1.887,100.2374,1.93,52.1,60.44,33.81,35.78
"2016-02-01 12:50:00",220602,0.196,339.4,-4.713,100,37.16176,0,863.7797,0,32.31,2.882,169,1.281,1.887,71.96907,1.936,52.05,60.44,33.8,35.78
"2016-02-01 13:00:00",220603,0.47,323.7,-4.922,100,39.13151,0,863.5943,0,32.34,2.883,170,1.286,1.887,74.08436,1.893,52.05,60.44,33.8,35.78
"2016-02-01 13:10:00",220604,0.48,351.3,-5.023,100,45.16262,0,863.6195,0,32.47,2.882,170,1.282,1.887,86.56001,1.915,52.05,60.44,33.8,35.78
"2016-02-01 13:20:00",220605,0.274,7.877,-4.997,100,42.26501,0,863.4868,0,32.29,2.884,170,1.282,1.887,81.58643,1.93,52.05,60.44,33.8,35.78
"2016-02-01 13:30:00",220606,0.205,356,-4.819,100,54.44913,0,863.4341,0,32.16,2.883,170,1.282,1.887,108.926,1.999,52.05,60.44,33.8,35.78
"2016-02-01 13:40:00",220607,0.432,351.1,-4.753,100,59.2182,0,863.3815,0,32.21,2.883,173,1.274,1.887,116.5645,1.966,52.05,60.44,33.8,35.78
"2016-02-01 13:50:00",220608,0.392,339.3,-4.766,100,45.65408,0,863.4446,0,32.25,2.883,170,1.278,1.887,86.08616,1.872,52.05,60.44,33.8,35.78
"2016-02-01 14:00:00",220609,0.168,314.5,-4.806,100,29.69559,0,863.5037,0,32.45,2.881,174,1.281,1.887,56.26363,1.894,51.99,60.44,33.79,35.78
"2016-02-01 14:10:00",220610,0.284,314.6,-4.844,100,35.33355,0,863.4573,0,32.3,2.883,170,1.281,1.887,68.58006,1.94,52.05,60.44,33.8,35.78
"2016-02-01 14:20:00",220611,0.436,323.9,-5.085,100,36.43048,0,863.4446,0,32.14,2.886,178,1.283,1.887,69.29274,1.902,52.05,60.44,33.8,35.78
"2016-02-01 14:30:00",220612,0.479,9.32,-5.097,100,41.49835,0,863.4437,0,32.29,2.884,191,1.284,1.887,81.60159,1.966,52.05,60.44,33.8,35.78
"2016-02-01 14:40:00",220613,0.412,16.5,-4.897,100,39.72518,0,863.3766,0,32.05,2.886,192,1.281,1.887,78.71297,1.981,52.05,60.38,33.8,35.77
"2016-02-01 14:50:00",220614,0.444,8.62,-5.023,100,30.96158,0,863.5923,0,32.15,2.885,183,1.284,1.887,58.71251,1.897,52.05,60.38,33.8,35.77
"2016-02-01 15:00:00",220615,0.425,10.04,-5.099,100,25.92123,0,863.4794,0,32.06,2.887,174,1.282,1.899,48.9094,1.886,52.05,60.38,33.8,35.77
"2016-02-01 15:10:00",220616,0.328,350.4,-5.142,100,27.86739,0,863.3011,0,32.34,2.883,178,1.282,1.916,54.78899,1.959,52.05,60.38,33.8,35.77
"2016-02-01 15:20:00",220617,0.579,190.4,-4.742,100,33.39919,0,863.1812,0,32.02,2.884,174,1.282,1.911,65.72935,1.969,52.05,60.44,33.8,35.78
"2016-02-01 15:30:00",220618,0.137,326.3,-4.588,100,31.39799,0,863.0948,0,32.21,2.882,174,1.282,1.891,62.67015,1.996,52.05,60.38,33.8,35.77
"2016-02-01 15:40:00",220619,0.183,218.3,-4.52,100,38.12501,0,863.0548,0,32.05,2.883,175,1.281,1.887,74.86906,1.964,52.05,60.38,33.8,35.77
"2016-02-01 15:50:00",220620,0.236,328.3,-4.526,100,30.10449,0,863.0211,0,32.01,2.885,174,1.281,1.887,59.54271,1.978,51.99,60.38,33.79,35.77
"2016-02-01 16:00:00",220621,0.233,331.2,-4.745,100,23.94755,0,863.1138,0,31.96,2.886,174,1.282,1.887,46.70692,1.951,52.05,60.38,33.8,35.77
"2016-02-01 16:10:00",220622,0.242,336.1,-4.831,100,20.58208,0,863.2002,0,32.08,2.885,170,1.282,1.891,40.23596,1.955,52.05,60.44,33.8,35.78
"2016-02-01 16:20:00",220623,0.515,323.7,-4.837,100,13.24173,0,863.2002,0,32,2.886,175,1.282,1.911,26.08476,1.957,52.05,60.38,33.8,35.77
"2016-02-01 16:30:00",220624,0.343,314.3,-5.073,100,9.494884,0,863.0463,0,32.04,2.887,174,1.282,1.893,17.08152,1.799,51.99,60.44,33.79,35.78
"2016-02-01 16:40:00",220625,0.115,331.3,-5.068,100,7.206676,0,863.373,0,31.97,2.887,175,1.282,1.887,13.70009,1.902,52.05,60.38,33.8,35.77
"2016-02-01 16:50:00",220626,0.177,339.3,-5.044,100,6.381034,0,863.4531,0,31.9,2.888,170,1.281,1.895,12.14585,1.902,52.05,60.44,33.8,35.78
"2016-02-01 17:00:00",220627,0.295,6.222,-5.094,100,4.179322,0,863.3266,0,31.92,2.888,171,1.279,1.883,6.975143,1.659,51.99,60.38,33.79,35.77
"2016-02-01 17:10:00",220628,0.359,321.5,-5.25,100,2.756072,0,863.0232,0,32.14,2.886,174,1.273,1.901,4.200249,1.526,52.05,60.44,33.8,35.78
"2016-02-01 17:20:00",220629,0.302,96.3,-5.059,100,0.7705993,0,863.0106,0,32.14,2.886,174,1.218,1.886,1.690714,2.506,52.05,60.44,33.8,35.78
"2016-02-01 17:30:00",220630,0.557,356.7,-5.213,100,0,0,862.9495,0,32.01,2.888,170,1.232,1.886,0.1288885,0,52.05,60.38,33.8,35.77
"2016-02-01 17:40:00",220631,0.538,337,-5.329,100,0,0,862.9621,0,31.83,2.891,170,1.239,1.886,0,0,51.99,60.38,33.79,35.77
"2016-02-01 17:50:00",220632,0.23,310.2,-5.525,100,0,0,863.2571,0,31.9,2.89,170,1.242,1.885,0,0,51.99,60.38,33.79,35.77
"2016-02-01 18:00:00",220633,0.217,355.6,-5.589,100,0.01965815,0,863.6742,0,31.87,2.891,171,1.234,1.893,0,0,51.99,60.33,33.79,35.75
"2016-02-01 18:10:00",220634,0.189,340.8,-5.668,100,0.06290607,0,863.434,0,31.82,2.892,170,1.227,1.903,0,0,51.99,60.38,33.79,35.77
"2016-02-01 18:20:00",220635,0.47,321.1,-5.777,100,0.2358978,0,863.4467,0,31.89,2.892,171,1.207,1.901,0,0,51.99,60.33,33.79,35.75
"2016-02-01 18:30:00",220636,0.256,351.8,-5.888,100,0.2241029,0,863.4531,0,31.86,2.893,170,1.199,1.895,0,0,51.99,60.33,33.79,35.75
"2016-02-01 18:40:00",220637,0.08,0.312,-5.898,100,0.02752141,0,863.4383,0,31.86,2.893,171,1.196,1.857,0,0,51.99,60.33,33.79,35.75
"2016-02-01 18:50:00",220638,0.167,355.5,-5.929,100,0,0,863.5457,0,31.84,2.893,170,1.196,1.845,0,0,51.99,60.33,33.79,35.75
"2016-02-01 19:00:00",220639,0.194,336.8,-5.938,100,0,0,863.7568,0,31.86,2.893,170,1.196,1.846,0,0,51.99,60.38,33.79,35.77
"2016-02-01 19:10:00",220640,0.124,1.219,-5.949,100,0,0,863.6555,0,31.79,2.894,171,1.196,1.846,0,0,51.99,60.38,33.79,35.77
"2016-02-01 19:20:00",220641,0.233,18.75,-6.005,100,0,0,863.7205,0,31.81,2.894,171,1.197,1.845,0,0,51.99,60.38,33.79,35.77
"2016-02-01 19:30:00",220642,0.098,334.9,-6.063,100,0.003931725,0,863.6584,0,31.77,2.895,170,1.205,1.852,0,0,51.99,60.38,33.79,35.77
"2016-02-01 19:40:00",220643,0.364,331.3,-6.089,100,0.02359141,0,863.5439,0,32.04,2.892,174,1.221,1.857,0,0,51.99,60.33,33.79,35.75
"2016-02-01 19:50:00",220644,0.216,210.5,-5.913,100,0,0,863.4842,0,31.94,2.892,171,1.229,1.849,0.1137394,0,51.99,60.38,33.79,35.77
"2016-02-01 20:00:00",220645,0.244,318.9,-5.962,100,0,0,863.5054,0,31.73,2.895,170,1.232,1.864,0.02653942,0,51.99,60.33,33.79,35.75
"2016-02-01 20:10:00",220646,0.277,1.739,-6.153,100,0.2320032,0,863.3527,0,31.77,2.896,170,1.238,1.858,0,0,51.99,60.33,33.79,35.75
"2016-02-01 20:20:00",220647,0.202,359.9,-6.311,100,0.2359392,0,863.2637,0,31.77,2.896,170,1.243,1.859,0,0,51.99,60.38,33.79,35.77
"2016-02-01 20:30:00",220648,0.259,344.5,-6.325,100,0.09044442,0,863.2681,0,31.69,2.897,171,1.249,1.849,0,0,51.99,60.38,33.79,35.77
"2016-02-01 20:40:00",220649,0.189,2.238,-6.382,100,0.1415706,0,863.0761,0,31.73,2.897,172,1.266,1.854,0,0,51.99,60.38,33.79,35.77
"2016-02-01 20:50:00",220650,0.268,359.9,-6.428,100,0.1415797,0,863.036,0,31.72,2.897,170,1.296,1.84,0,0,51.99,60.38,33.79,35.77
"2016-02-01 21:00:00",220651,0.137,18.24,-6.458,100,0.003932837,0,863.2614,0,31.65,2.898,170,1.315,1.84,0,0,51.99,60.33,33.79,35.75
"2016-02-01 21:10:00",220652,0.156,352.5,-6.537,99.9,0.1494497,0,863.4281,0,31.72,2.898,170,1.315,1.841,0,0,51.99,60.33,33.79,35.75
"2016-02-01 21:20:00",220653,0.088,357.9,-6.595,100,0.01573164,0,863.4225,0,31.62,2.899,171,1.323,1.843,0,0,51.99,60.38,33.79,35.77
"2016-02-01 21:30:00",220654,0.011,16.41,-6.639,99.9,0,0,863.2905,0,31.81,2.897,170,1.325,1.846,0,0,51.94,60.38,33.77,35.77
"2016-02-01 21:40:00",220655,0.199,348.6,-6.576,100,0,0,863.3054,0,31.76,2.898,172,1.326,1.853,0.03033697,0,51.99,60.33,33.79,35.75
"2016-02-01 21:50:00",220656,0.289,346.8,-6.615,99.9,0,0,863.2885,0,31.71,2.898,193,1.327,1.854,0.007584259,0,51.94,60.33,33.77,35.75
"2016-02-01 22:00:00",220657,0.242,328.4,-6.571,100,0,0,863.1705,0,31.84,2.897,190,1.327,1.851,0.007584261,0,51.99,60.33,33.79,35.75
"2016-02-01 22:10:00",220658,0.391,333.3,-6.694,99.4,0.1494528,0,863.0187,0,31.71,2.899,195,1.327,1.849,0,0,51.94,60.33,33.77,35.75
"2016-02-01 22:20:00",220659,0.386,332.8,-6.774,99.5,0.1966484,0,863.0588,0,31.81,2.898,185,1.327,1.849,0,0,51.99,60.33,33.79,35.75
"2016-02-01 22:30:00",220660,0.373,299.5,-6.7,99.9,0,0,863.1368,0,31.78,2.898,194,1.327,1.856,0.02654491,0,51.99,60.33,33.79,35.75
"2016-02-01 22:40:00",220661,0.301,164.4,-6.561,100,0,0,863.0693,0,31.79,2.897,194,1.327,1.868,0.1365167,0,51.94,60.33,33.77,35.75
"2016-02-01 22:50:00",220662,0.281,184.4,-6.544,99.8,0,0,863.044,0,31.68,2.899,194,1.325,1.851,0.09480325,0,51.99,60.33,33.79,35.75
"2016-02-01 23:00:00",220663,0.347,47.9,-6.746,99.3,0,0,863.0377,0,31.71,2.899,195,1.325,1.855,0,0,51.99,60.33,33.79,35.75
"2016-02-01 23:10:00",220664,0.815,13.36,-6.786,99.1,0,0,863.0504,0,31.65,2.9,185,1.315,1.87,0,0,51.94,60.33,33.77,35.75
"2016-02-01 23:20:00",220665,0.249,3.939,-6.871,98.9,0,0,863.0482,0,31.68,2.9,194,1.317,1.885,0,0,51.94,60.33,33.77,35.75
"2016-02-01 23:30:00",220666,0.054,11.61,-6.907,99.1,0,0,863.0377,0,31.68,2.9,195,1.315,1.887,0,0,51.99,60.33,33.79,35.75
"2016-02-01 23:40:00",220667,0.333,354,-6.971,98.8,0,0,862.8902,0,31.65,2.901,194,1.317,1.889,0.04171343,0,51.99,60.33,33.79,35.75
"2016-02-01 23:50:00",220668,0.088,355.8,-7.021,98.9,0,0,862.8691,0,31.55,2.902,195,1.322,1.889,0.05688196,0,51.99,60.33,33.79,35.75
